This is the latest recevied weather packets stored in our database for station/object DOUGLAS. If no packets are shown the sender has not sent any weather packets the latest 10 day(s).
| Time | Temp. | Humidity | Pressure | Rain* | Wind** | Luminosity | Snow |
|---|---|---|---|---|---|---|---|
| 1787960403 | 17.78° C | 68% | 0 hPa | - | - | - | - |
| 1787959803 | 17.78° C | 67% | 0 hPa | - | - | - | - |
| 1787959203 | 18.33° C | 67% | 0 hPa | - | - | - | - |
| 1787958603 | 17.78° C | 69% | 0 hPa | - | - | - | - |
| 1787958005 | 17.78° C | 68% | 0 hPa | - | - | - | - |
| 1787957403 | 17.78° C | 70% | 0 hPa | - | - | - | - |
| 1787956803 | 16.67° C | 76% | 0 hPa | - | - | - | - |
| 1787956204 | 17.78° C | 71% | 0 hPa | - | - | - | - |
| 1787955603 | 17.22° C | 71% | 0 hPa | - | - | - | - |
| 1787955003 | 17.22° C | 72% | 0 hPa | - | - | - | - |
| 1787954403 | 17.22° C | 69% | 0 hPa | - | - | - | - |
| 1787953803 | 17.22° C | 68% | 0 hPa | - | - | - | - |
| 1787953203 | 17.22° C | 72% | 0 hPa | - | - | - | - |
| 1787952604 | 17.22° C | 70% | 0 hPa | - | - | - | - |
| 1787952003 | 17.78° C | 69% | 0 hPa | - | - | - | - |
| 1787951403 | 17.78° C | 68% | 0 hPa | - | - | - | - |
| 1787950803 | 17.78° C | 68% | 0 hPa | - | - | - | - |
| 1787950203 | 18.33° C | 68% | 0 hPa | - | - | - | - |
| 1787949603 | 16.67° C | 75% | 0 hPa | - | - | - | - |
| 1787949004 | 17.22° C | 74% | 0 hPa | - | - | - | - |
| 1787948403 | 16.67° C | 76% | 0 hPa | - | - | - | - |
| 1787947803 | 17.22° C | 75% | 0 hPa | - | - | - | - |
| 1787947213 | 17.22° C | 74% | 0 hPa | - | - | - | - |
| 1787946603 | 16.67° C | 77% | 0 hPa | - | - | - | - |
| 1787946003 | 16.11° C | 79% | 0 hPa | - | - | - | - |
* Rain since midnight (hover to see other rain measurements)
** Current wind speed in m/s (hover to see current wind gust speed)